SKY163 RJBE-RORS

Flight info

Callsign SKY163
Flight time 1h 57m
Altitude 38000
Route MUKRI ATKAS TANTA Y75 SWANO Y26 YURIX Y62 GANAS Y576 DIANA
Aircraft B738/M-SDE2E3FGHIRWXY/LB1

Departure

Time 2026-05-06 17:08
Airport Kobe Airport (RJBE)

Arrival

Time 2026-05-06 19:05
Airport Shimojishima Airport (RORS)
Time Latitude Longitude Altitude Speed Heading
2026-05-06 16:36 34.63618 135.23013 34 ft 0 kts 354°
2026-05-06 16:58 34.63606 135.23015 36 ft 4 kts 353°
2026-05-06 16:58 34.63580 135.23019 35 ft 4 kts 351°
2026-05-06 16:58 34.63553 135.23025 34 ft 4 kts 348°
2026-05-06 16:58 34.63527 135.23032 34 ft 4 kts 342°
2026-05-06 16:59 34.63503 135.23045 35 ft 4 kts 322°
2026-05-06 16:59 34.63490 135.23064 32 ft 2 kts 265°
2026-05-06 16:59 34.63490 135.23065 32 ft 1 kts 264°
2026-05-06 17:03 34.63490 135.23061 34 ft 2 kts 264°
2026-05-06 17:03 34.63486 135.23011 33 ft 10 kts 264°
2026-05-06 17:03 34.63476 135.22888 34 ft 18 kts 265°
2026-05-06 17:03 34.63469 135.22784 35 ft 19 kts 265°
2026-05-06 17:04 34.63455 135.22615 34 ft 21 kts 264°
2026-05-06 17:04 34.63441 135.22436 35 ft 22 kts 264°
2026-05-06 17:04 34.63426 135.22246 35 ft 23 kts 264°
2026-05-06 17:04 34.63409 135.22019 34 ft 30 kts 265°
2026-05-06 17:05 34.63390 135.21774 34 ft 28 kts 264°
2026-05-06 17:05 34.63372 135.21547 34 ft 27 kts 264°
2026-05-06 17:05 34.63355 135.21330 34 ft 25 kts 265°
2026-05-06 17:05 34.63339 135.21131 34 ft 19 kts 264°
2026-05-06 17:06 34.63280 135.21037 34 ft 15 kts 188°
2026-05-06 17:06 34.63182 135.21057 36 ft 9 kts 158°
2026-05-06 17:06 34.63167 135.21083 36 ft 3 kts 93°
2026-05-06 17:06 34.63169 135.21111 36 ft 3 kts 85°
2026-05-06 17:07 34.63171 135.21141 35 ft 4 kts 85°
2026-05-06 17:07 34.63175 135.21183 36 ft 9 kts 85°
2026-05-06 17:07 34.63201 135.21511 33 ft 73 kts 84°
2026-05-06 17:07 34.63272 135.22379 36 ft 130 kts 85°
2026-05-06 17:08 34.63368 135.23629 166 ft 162 kts 83°
2026-05-06 17:08 34.63446 135.25001 754 ft 166 kts 92°
2026-05-06 17:08 34.62957 135.26219 1376 ft 166 kts 146°
2026-05-06 17:08 34.61780 135.26593 1752 ft 193 kts 185°
2026-05-06 17:09 34.60468 135.25973 2086 ft 216 kts 219°
2026-05-06 17:09 34.59698 135.24377 2453 ft 229 kts 259°
2026-05-06 17:09 34.59549 135.22428 3007 ft 238 kts 264°
2026-05-06 17:09 34.59295 135.20373 3443 ft 253 kts 251°
2026-05-06 17:10 34.58759 135.18321 4274 ft 253 kts 253°
2026-05-06 17:10 34.58324 135.16267 5138 ft 255 kts 256°
2026-05-06 17:10 34.57934 135.14138 5916 ft 260 kts 256°
2026-05-06 17:10 34.57535 135.11995 6744 ft 261 kts 256°
2026-05-06 17:11 34.57081 135.09840 7468 ft 265 kts 250°
2026-05-06 17:11 34.56423 135.07721 8185 ft 270 kts 248°
2026-05-06 17:11 34.55830 135.05564 8900 ft 275 kts 262°
2026-05-06 17:11 34.55838 135.03226 9658 ft 279 kts 272°
2026-05-06 17:12 34.55941 135.00850 10300 ft 287 kts 271°
2026-05-06 17:12 34.56033 134.98342 10489 ft 310 kts 271°
2026-05-06 17:12 34.56119 134.95632 10658 ft 332 kts 271°
2026-05-06 17:12 34.56201 134.92761 10992 ft 346 kts 271°
2026-05-06 17:13 34.56283 134.89813 11565 ft 351 kts 270°
2026-05-06 17:13 34.56364 134.86875 12248 ft 353 kts 270°
2026-05-06 17:13 34.56446 134.83883 12930 ft 355 kts 270°
2026-05-06 17:13 34.56500 134.80861 13591 ft 358 kts 265°
2026-05-06 17:14 34.55934 134.77924 14185 ft 360 kts 245°
2026-05-06 17:14 34.54619 134.75373 14767 ft 364 kts 229°
2026-05-06 17:14 34.52765 134.73227 15327 ft 369 kts 223°
2026-05-06 17:14 34.50834 134.71189 15878 ft 375 kts 221°
2026-05-06 17:15 34.48833 134.69112 16414 ft 380 kts 221°
2026-05-06 17:15 34.46816 134.67012 16947 ft 384 kts 222°
2026-05-06 17:15 34.44780 134.64877 17481 ft 389 kts 222°
2026-05-06 17:15 34.42729 134.62710 18004 ft 393 kts 222°
2026-05-06 17:16 34.40656 134.60512 18499 ft 398 kts 223°
2026-05-06 17:16 34.38561 134.58285 18971 ft 401 kts 223°
2026-05-06 17:16 34.36478 134.56071 19454 ft 403 kts 223°
2026-05-06 17:16 34.34357 134.53817 19936 ft 406 kts 223°
2026-05-06 17:17 34.32221 134.51549 20390 ft 409 kts 223°
2026-05-06 17:17 34.30066 134.49262 20864 ft 412 kts 223°
2026-05-06 17:17 34.27923 134.46991 21315 ft 415 kts 223°
2026-05-06 17:17 34.25798 134.44618 21759 ft 417 kts 227°
2026-05-06 17:18 34.23847 134.41982 22201 ft 419 kts 231°
2026-05-06 17:18 34.21984 134.39248 22610 ft 423 kts 232°
2026-05-06 17:18 34.20123 134.36470 23038 ft 426 kts 232°
2026-05-06 17:18 34.18262 134.33721 23462 ft 428 kts 232°
2026-05-06 17:19 34.16352 134.30943 23840 ft 431 kts 231°
2026-05-06 17:19 34.14415 134.28164 24173 ft 434 kts 231°
2026-05-06 17:19 34.12455 134.25379 24480 ft 436 kts 231°
2026-05-06 17:19 34.10470 134.22563 24793 ft 439 kts 231°
2026-05-06 17:20 34.08480 134.19741 25108 ft 442 kts 231°
2026-05-06 17:20 34.06507 134.16946 25436 ft 444 kts 231°
2026-05-06 17:20 34.04496 134.14099 25768 ft 446 kts 231°
2026-05-06 17:20 34.02476 134.11241 26083 ft 448 kts 231°
2026-05-06 17:21 34.00444 134.08369 26387 ft 451 kts 231°
2026-05-06 17:21 33.98394 134.05473 26686 ft 453 kts 231°
2026-05-06 17:21 33.96337 134.02569 26994 ft 455 kts 231°
2026-05-06 17:21 33.94301 133.99696 27359 ft 456 kts 231°
2026-05-06 17:22 33.92238 133.96788 27658 ft 458 kts 231°
2026-05-06 17:22 33.90159 133.93858 27911 ft 461 kts 231°
2026-05-06 17:22 33.88065 133.90909 28099 ft 465 kts 231°
2026-05-06 17:22 33.85955 133.87939 28350 ft 467 kts 231°
2026-05-06 17:23 33.83838 133.84964 28644 ft 468 kts 231°
2026-05-06 17:23 33.81714 133.81963 28959 ft 469 kts 232°
2026-05-06 17:23 33.79760 133.78833 29317 ft 467 kts 236°
2026-05-06 17:23 33.77957 133.75631 29550 ft 469 kts 238°
2026-05-06 17:24 33.76153 133.72339 29729 ft 473 kts 238°
2026-05-06 17:24 33.74314 133.69047 30005 ft 474 kts 237°
2026-05-06 17:24 33.72443 133.65774 30376 ft 473 kts 237°
2026-05-06 17:24 33.70569 133.62525 30769 ft 470 kts 237°
2026-05-06 17:25 33.68719 133.59309 31241 ft 465 kts 237°
2026-05-06 17:25 33.66905 133.56149 31563 ft 465 kts 237°
2026-05-06 17:25 33.65061 133.52933 31758 ft 468 kts 237°
2026-05-06 17:25 33.63215 133.49715 32026 ft 468 kts 237°
2026-05-06 17:26 33.61371 133.46504 32403 ft 466 kts 237°
2026-05-06 17:26 33.59532 133.43305 32807 ft 463 kts 237°
2026-05-06 17:26 33.57701 133.40124 33153 ft 462 kts 237°
2026-05-06 17:26 33.55871 133.36947 33412 ft 463 kts 237°
2026-05-06 17:27 33.54058 133.33803 33704 ft 463 kts 237°
2026-05-06 17:27 33.52221 133.30619 34048 ft 462 kts 237°
2026-05-06 17:27 33.50397 133.27462 34362 ft 460 kts 237°
2026-05-06 17:27 33.48580 133.24319 34672 ft 458 kts 237°
2026-05-06 17:28 33.46764 133.21180 34964 ft 457 kts 237°
2026-05-06 17:28 33.44952 133.18051 35222 ft 456 kts 237°
2026-05-06 17:28 33.43141 133.14923 35490 ft 456 kts 237°
2026-05-06 17:28 33.41334 133.11807 35766 ft 454 kts 237°
2026-05-06 17:29 33.39533 133.08706 36056 ft 453 kts 237°
2026-05-06 17:29 33.37756 133.05651 36318 ft 452 kts 237°
2026-05-06 17:29 33.35954 133.02561 36577 ft 451 kts 237°
2026-05-06 17:29 33.34156 132.99482 36820 ft 451 kts 237°
2026-05-06 17:30 33.32355 132.96401 37030 ft 450 kts 237°
2026-05-06 17:30 33.30555 132.93321 37272 ft 449 kts 237°
2026-05-06 17:30 33.28787 132.90299 37532 ft 448 kts 237°
2026-05-06 17:30 33.27004 132.87253 37775 ft 447 kts 237°
2026-05-06 17:31 33.25218 132.84203 38010 ft 446 kts 237°
2026-05-06 17:31 33.21642 132.78104 38091 ft 449 kts 236°
2026-05-06 17:32 33.18074 132.72030 38064 ft 445 kts 236°
2026-05-06 17:32 33.14539 132.66014 38077 ft 440 kts 237°
2026-05-06 17:33 33.11034 132.60039 38077 ft 438 kts 237°
2026-05-06 17:33 33.07545 132.54100 38070 ft 438 kts 237°
2026-05-06 17:34 33.04031 132.48126 38080 ft 439 kts 236°
2026-05-06 17:34 33.00526 132.42184 38070 ft 441 kts 235°
2026-05-06 17:35 32.96172 132.36986 38069 ft 447 kts 217°
2026-05-06 17:35 32.90693 132.33365 38074 ft 453 kts 207°
2026-05-06 17:36 32.82153 132.28389 38063 ft 457 kts 208°
2026-05-06 17:36 32.76482 132.25009 38059 ft 460 kts 208°
2026-05-06 17:37 32.70756 132.21580 38064 ft 461 kts 208°
2026-05-06 17:37 32.65052 132.18149 38052 ft 456 kts 210°
2026-05-06 17:38 32.59622 132.14364 38054 ft 454 kts 213°
2026-05-06 17:38 32.54234 132.10449 38058 ft 453 kts 213°
2026-05-06 17:39 32.48815 132.06589 38060 ft 453 kts 212°
2026-05-06 17:39 32.43435 132.02788 38057 ft 452 kts 212°
2026-05-06 17:40 32.38020 131.98962 38051 ft 452 kts 212°
2026-05-06 17:40 32.32617 131.95146 38061 ft 456 kts 212°
2026-05-06 17:41 32.27120 131.91268 38060 ft 461 kts 212°
2026-05-06 17:41 32.21611 131.87388 38054 ft 463 kts 212°
2026-05-06 17:42 32.16137 131.83540 38042 ft 451 kts 212°
2026-05-06 17:42 32.10759 131.79763 38051 ft 449 kts 212°
2026-05-06 17:43 32.05366 131.75980 38042 ft 452 kts 212°
2026-05-06 17:43 31.99949 131.72183 38059 ft 459 kts 212°
2026-05-06 17:44 31.94410 131.68309 38055 ft 463 kts 212°
2026-05-06 17:44 31.88871 131.64444 38052 ft 463 kts 212°
2026-05-06 17:45 31.83408 131.60637 38039 ft 450 kts 212°
2026-05-06 17:45 31.78017 131.56883 38055 ft 450 kts 212°
2026-05-06 17:46 31.72619 131.53127 38057 ft 456 kts 212°
2026-05-06 17:46 31.68045 131.49946 38059 ft 461 kts 212°
2026-05-06 17:47 31.62482 131.46086 38052 ft 466 kts 212°
2026-05-06 17:47 31.56889 131.42211 38058 ft 466 kts 212°
2026-05-06 17:48 31.51378 131.38400 38041 ft 452 kts 212°
2026-05-06 17:48 31.46007 131.34690 38052 ft 449 kts 212°
2026-05-06 17:49 31.40571 131.30938 38048 ft 456 kts 212°
2026-05-06 17:49 31.35075 131.27149 38047 ft 463 kts 212°
2026-05-06 17:50 31.29483 131.23301 38048 ft 466 kts 212°
2026-05-06 17:50 31.23901 131.19465 38042 ft 469 kts 212°
2026-05-06 17:51 31.18251 131.15588 38037 ft 469 kts 212°
2026-05-06 17:51 31.12652 131.11755 38027 ft 468 kts 212°
2026-05-06 17:52 31.07028 131.07906 38036 ft 467 kts 212°
2026-05-06 17:52 31.01413 131.04067 38032 ft 467 kts 212°
2026-05-06 17:53 30.95803 131.00238 38031 ft 466 kts 212°
2026-05-06 17:53 30.90243 130.96448 38036 ft 465 kts 212°
2026-05-06 17:54 30.84656 130.92646 38031 ft 464 kts 212°
2026-05-06 17:54 30.79066 130.88848 38029 ft 464 kts 212°
2026-05-06 17:55 30.73522 130.85084 38043 ft 464 kts 212°
2026-05-06 17:55 30.67929 130.81293 38042 ft 465 kts 212°
2026-05-06 17:56 30.62319 130.77495 38040 ft 466 kts 212°
2026-05-06 17:56 30.56732 130.73717 38026 ft 467 kts 212°
2026-05-06 17:57 30.51091 130.69909 38022 ft 468 kts 212°
2026-05-06 17:57 30.45480 130.66126 38022 ft 468 kts 212°
2026-05-06 17:58 30.39865 130.62344 38024 ft 468 kts 212°
2026-05-06 17:58 30.34210 130.58542 38013 ft 468 kts 212°
2026-05-06 17:59 30.28611 130.54787 38010 ft 466 kts 212°
2026-05-06 17:59 30.22979 130.51016 38008 ft 464 kts 212°
2026-05-06 18:00 30.17417 130.47273 38004 ft 459 kts 212°
2026-05-06 18:00 30.11895 130.43578 38012 ft 465 kts 212°
2026-05-06 18:01 30.06236 130.39825 38015 ft 471 kts 212°
2026-05-06 18:01 30.00530 130.36023 38007 ft 474 kts 212°
2026-05-06 18:02 29.94841 130.32237 38000 ft 474 kts 212°
2026-05-06 18:02 29.89129 130.28442 37996 ft 473 kts 212°
2026-05-06 18:03 29.83466 130.24684 37965 ft 465 kts 212°
2026-05-06 18:03 29.77877 130.20978 37995 ft 466 kts 212°
2026-05-06 18:04 29.72224 130.17230 38010 ft 469 kts 212°
2026-05-06 18:04 29.66573 130.13492 38003 ft 472 kts 212°
2026-05-06 18:05 29.60842 130.09707 38001 ft 475 kts 212°
2026-05-06 18:05 29.55504 130.05314 37989 ft 469 kts 228°
2026-05-06 18:06 29.51041 129.99913 37983 ft 467 kts 230°
2026-05-06 18:06 29.46591 129.94464 37992 ft 467 kts 230°
2026-05-06 18:07 29.42100 129.89044 37993 ft 466 kts 230°
2026-05-06 18:07 29.37646 129.83718 37991 ft 466 kts 230°
2026-05-06 18:08 29.33154 129.78360 37980 ft 465 kts 230°
2026-05-06 18:08 29.28672 129.73019 37993 ft 463 kts 230°
2026-05-06 18:09 29.24208 129.67704 37994 ft 463 kts 230°
2026-05-06 18:09 29.19738 129.62389 37996 ft 462 kts 230°
2026-05-06 18:10 29.15294 129.57113 37975 ft 462 kts 230°
2026-05-06 18:10 29.10832 129.51821 37991 ft 462 kts 230°
2026-05-06 18:11 29.06373 129.46539 37993 ft 462 kts 230°
2026-05-06 18:11 29.01906 129.41254 37992 ft 462 kts 230°
2026-05-06 18:12 28.97456 129.35990 37993 ft 462 kts 230°
2026-05-06 18:12 28.93003 129.30661 37987 ft 462 kts 230°
2026-05-06 18:13 28.88567 129.25340 37990 ft 463 kts 230°
2026-05-06 18:13 28.84147 129.20050 37996 ft 463 kts 230°
2026-05-06 18:14 28.79688 129.14726 37995 ft 463 kts 230°
2026-05-06 18:14 28.75224 129.09405 37994 ft 463 kts 230°
2026-05-06 18:15 28.70760 129.04091 37990 ft 463 kts 230°
2026-05-06 18:15 28.66339 128.98835 37998 ft 462 kts 230°
2026-05-06 18:16 28.61883 128.93543 37997 ft 462 kts 230°
2026-05-06 18:16 28.57435 128.88269 37972 ft 461 kts 231°
2026-05-06 18:17 28.53021 128.83040 37980 ft 459 kts 231°
2026-05-06 18:17 28.48593 128.77803 37984 ft 458 kts 231°
2026-05-06 18:18 28.44167 128.72574 37990 ft 457 kts 231°
2026-05-06 18:18 28.39783 128.67402 37989 ft 456 kts 231°
2026-05-06 18:19 28.35369 128.62201 37999 ft 454 kts 231°
2026-05-06 18:19 28.31003 128.57061 37988 ft 454 kts 231°
2026-05-06 18:20 28.26618 128.51906 37991 ft 453 kts 231°
2026-05-06 18:20 28.22272 128.46802 37987 ft 452 kts 231°
2026-05-06 18:21 28.17897 128.41674 37993 ft 451 kts 231°
2026-05-06 18:21 28.13528 128.36562 37992 ft 451 kts 231°
2026-05-06 18:22 28.09159 128.31454 37989 ft 452 kts 231°
2026-05-06 18:22 28.04780 128.26340 37990 ft 452 kts 231°
2026-05-06 18:23 28.00393 128.21222 37989 ft 453 kts 231°
2026-05-06 18:23 27.95999 128.16103 37988 ft 453 kts 231°
2026-05-06 18:24 27.91637 128.11027 37990 ft 453 kts 231°
2026-05-06 18:24 27.87239 128.05916 37988 ft 453 kts 231°
2026-05-06 18:25 27.82834 128.00802 37990 ft 453 kts 231°
2026-05-06 18:25 27.78459 127.95730 37991 ft 452 kts 231°
2026-05-06 18:26 27.74059 127.90635 37983 ft 451 kts 231°
2026-05-06 18:26 27.69678 127.85569 37985 ft 450 kts 231°
2026-05-06 18:27 27.65300 127.80511 37996 ft 450 kts 231°
2026-05-06 18:27 27.60923 127.75461 37984 ft 449 kts 231°
2026-05-06 18:28 27.56575 127.70449 37972 ft 448 kts 231°
2026-05-06 18:28 27.52219 127.65433 37985 ft 447 kts 231°
2026-05-06 18:29 27.48565 127.61303 37988 ft 449 kts 227°
2026-05-06 18:29 27.42696 127.56380 37996 ft 453 kts 220°
2026-05-06 18:30 27.38370 127.52982 37990 ft 453 kts 220°
2026-05-06 18:30 27.33218 127.48893 37998 ft 452 kts 221°
2026-05-06 18:31 27.28099 127.44781 37995 ft 452 kts 221°
2026-05-06 18:31 27.23000 127.40670 37991 ft 452 kts 221°
2026-05-06 18:32 27.17881 127.36546 37977 ft 452 kts 221°
2026-05-06 18:32 27.12758 127.32425 37991 ft 452 kts 221°
2026-05-06 18:33 27.07638 127.28312 37991 ft 452 kts 221°
2026-05-06 18:33 27.02545 127.24226 37988 ft 452 kts 221°
2026-05-06 18:34 26.97408 127.20109 37990 ft 452 kts 221°
2026-05-06 18:34 26.92282 127.16007 38002 ft 452 kts 221°
2026-05-06 18:35 26.87185 127.11932 37991 ft 452 kts 221°
2026-05-06 18:35 26.82067 127.07844 37992 ft 451 kts 221°
2026-05-06 18:36 26.76951 127.03762 37988 ft 451 kts 221°
2026-05-06 18:36 26.71864 126.99709 37993 ft 450 kts 221°
2026-05-06 18:37 26.66757 126.95643 37991 ft 450 kts 221°
2026-05-06 18:37 26.61678 126.91605 37990 ft 449 kts 221°
2026-05-06 18:38 26.56577 126.87554 37989 ft 449 kts 221°
2026-05-06 18:38 26.51486 126.83514 37992 ft 448 kts 221°
2026-05-06 18:39 26.46379 126.79465 37628 ft 454 kts 221°
2026-05-06 18:39 26.43804 126.77425 37117 ft 452 kts 220°
2026-05-06 18:40 26.38712 126.73399 35955 ft 449 kts 220°
2026-05-06 18:40 26.36176 126.71345 35349 ft 448 kts 223°
2026-05-06 18:40 26.33737 126.69195 34690 ft 448 kts 224°
2026-05-06 18:40 26.31319 126.66977 33994 ft 450 kts 224°
2026-05-06 18:41 26.28917 126.64754 33464 ft 446 kts 224°
2026-05-06 18:41 26.26526 126.62556 32925 ft 443 kts 224°
2026-05-06 18:41 26.24178 126.60414 32443 ft 440 kts 224°
2026-05-06 18:41 26.21814 126.58271 31933 ft 436 kts 224°
2026-05-06 18:42 26.19463 126.56146 31461 ft 433 kts 224°
2026-05-06 18:42 26.17129 126.54039 30993 ft 430 kts 224°
2026-05-06 18:42 26.14810 126.51946 30521 ft 427 kts 224°
2026-05-06 18:42 26.12511 126.49864 30004 ft 425 kts 224°
2026-05-06 18:43 26.10228 126.47785 29457 ft 423 kts 224°
2026-05-06 18:43 26.07958 126.45713 28957 ft 420 kts 224°
2026-05-06 18:43 26.05711 126.43661 28453 ft 417 kts 224°
2026-05-06 18:43 26.03476 126.41623 27989 ft 414 kts 224°
2026-05-06 18:44 26.01285 126.39628 27527 ft 411 kts 224°
2026-05-06 18:44 25.99049 126.37594 27056 ft 408 kts 224°
2026-05-06 18:44 25.96874 126.35621 26599 ft 406 kts 224°
2026-05-06 18:44 25.94684 126.33643 26140 ft 404 kts 224°
2026-05-06 18:45 25.92504 126.31678 25686 ft 403 kts 223°
2026-05-06 18:45 25.90323 126.29715 25212 ft 402 kts 223°
2026-05-06 18:45 25.88151 126.27758 24745 ft 401 kts 223°
2026-05-06 18:45 25.85983 126.25804 24282 ft 400 kts 223°
2026-05-06 18:46 25.83819 126.23855 23820 ft 400 kts 223°
2026-05-06 18:46 25.81687 126.21935 23316 ft 399 kts 223°
2026-05-06 18:46 25.79530 126.19994 22822 ft 397 kts 223°
2026-05-06 18:46 25.77382 126.18064 22342 ft 395 kts 223°
2026-05-06 18:47 25.75250 126.16146 21890 ft 393 kts 222°
2026-05-06 18:47 25.73134 126.14246 21435 ft 391 kts 222°
2026-05-06 18:47 25.71022 126.12349 20985 ft 389 kts 222°
2026-05-06 18:47 25.68926 126.10467 20539 ft 387 kts 222°
2026-05-06 18:48 25.66860 126.08612 20098 ft 385 kts 222°
2026-05-06 18:48 25.64778 126.06744 19635 ft 384 kts 222°
2026-05-06 18:48 25.62704 126.04883 19175 ft 383 kts 222°
2026-05-06 18:48 25.60649 126.03042 18737 ft 382 kts 221°
2026-05-06 18:49 25.58575 126.01184 18276 ft 381 kts 221°
2026-05-06 18:49 25.56517 125.99340 17777 ft 380 kts 221°
2026-05-06 18:49 25.54486 125.97523 17316 ft 378 kts 221°
2026-05-06 18:49 25.52447 125.95698 16863 ft 376 kts 221°
2026-05-06 18:50 25.50417 125.93883 16414 ft 373 kts 221°
2026-05-06 18:50 25.48403 125.92082 15974 ft 371 kts 221°
2026-05-06 18:50 25.46392 125.90285 15535 ft 369 kts 221°
2026-05-06 18:50 25.44422 125.88468 15084 ft 367 kts 226°
2026-05-06 18:51 25.42758 125.86351 14621 ft 363 kts 237°
2026-05-06 18:51 25.41463 125.83968 14181 ft 359 kts 243°
2026-05-06 18:51 25.40256 125.81586 14012 ft 348 kts 243°
2026-05-06 18:51 25.39078 125.79266 13347 ft 351 kts 242°
2026-05-06 18:52 25.37870 125.76918 12851 ft 350 kts 242°
2026-05-06 18:52 25.36667 125.74607 12458 ft 344 kts 241°
2026-05-06 18:52 25.35468 125.72314 11997 ft 342 kts 241°
2026-05-06 18:52 25.34272 125.70046 11581 ft 338 kts 241°
2026-05-06 18:53 25.33081 125.67811 11167 ft 335 kts 240°
2026-05-06 18:53 25.31899 125.65600 10760 ft 332 kts 240°
2026-05-06 18:53 25.30730 125.63415 10505 ft 324 kts 240°
2026-05-06 18:53 25.29612 125.61327 10330 ft 315 kts 240°
2026-05-06 18:54 25.28513 125.59272 10193 ft 305 kts 240°
2026-05-06 18:54 25.27450 125.57284 10079 ft 294 kts 240°
2026-05-06 18:54 25.26430 125.55377 10039 ft 282 kts 240°
2026-05-06 18:54 25.25435 125.53515 9639 ft 283 kts 240°
2026-05-06 18:55 25.24436 125.51647 9301 ft 282 kts 240°
2026-05-06 18:55 25.23440 125.49786 8989 ft 280 kts 240°
2026-05-06 18:55 25.22451 125.47938 8681 ft 278 kts 240°
2026-05-06 18:55 25.21483 125.46128 8380 ft 276 kts 240°
2026-05-06 18:56 25.20495 125.44285 8071 ft 274 kts 240°
2026-05-06 18:56 25.19529 125.42483 7782 ft 272 kts 240°
2026-05-06 18:56 25.18578 125.40708 7491 ft 271 kts 240°
2026-05-06 18:56 25.17622 125.38926 7200 ft 269 kts 240°
2026-05-06 18:57 25.16669 125.37147 6913 ft 267 kts 241°
2026-05-06 18:57 25.15722 125.35382 6626 ft 266 kts 241°
2026-05-06 18:57 25.14776 125.33621 6326 ft 265 kts 241°
2026-05-06 18:57 25.13848 125.31891 6035 ft 264 kts 241°
2026-05-06 18:58 25.12914 125.30149 5737 ft 263 kts 240°
2026-05-06 18:58 25.11984 125.28420 5449 ft 261 kts 240°
2026-05-06 18:58 25.11060 125.26702 5164 ft 259 kts 239°
2026-05-06 18:58 25.10136 125.24997 4888 ft 257 kts 237°
2026-05-06 18:59 25.09122 125.23413 4615 ft 255 kts 232°
2026-05-06 18:59 25.08053 125.21863 4339 ft 252 kts 231°
2026-05-06 18:59 25.06993 125.20335 4115 ft 249 kts 231°
2026-05-06 18:59 25.05931 125.18796 3862 ft 251 kts 232°
2026-05-06 19:00 25.04893 125.17280 3714 ft 245 kts 232°
2026-05-06 19:00 25.03881 125.15797 3591 ft 237 kts 232°
2026-05-06 19:00 25.02907 125.14365 3489 ft 229 kts 231°
2026-05-06 19:00 25.02284 125.13449 3428 ft 223 kts 231°
2026-05-06 19:01 25.01093 125.11700 3305 ft 207 kts 231°
2026-05-06 19:01 25.00159 125.10534 3061 ft 199 kts 212°
2026-05-06 19:01 24.98887 125.10233 2892 ft 186 kts 171°
2026-05-06 19:01 24.97636 125.10464 2664 ft 181 kts 170°
2026-05-06 19:02 24.96413 125.10737 2430 ft 177 kts 167°
2026-05-06 19:02 24.95221 125.11053 2191 ft 175 kts 165°
2026-05-06 19:02 24.94073 125.11366 1974 ft 168 kts 163°
2026-05-06 19:02 24.92975 125.11666 1772 ft 157 kts 164°
2026-05-06 19:03 24.91915 125.11960 1575 ft 158 kts 163°
2026-05-06 19:03 24.90863 125.12250 1360 ft 156 kts 163°
2026-05-06 19:03 24.89818 125.12537 1152 ft 153 kts 162°
2026-05-06 19:03 24.88812 125.12813 949 ft 145 kts 162°
2026-05-06 19:04 24.87835 125.13082 830 ft 150 kts 163°
2026-05-06 19:04 24.86803 125.13361 635 ft 150 kts 160°
2026-05-06 19:04 24.85817 125.13649 383 ft 141 kts 163°
2026-05-06 19:04 24.84891 125.13893 207 ft 136 kts 164°
2026-05-06 19:05 24.83932 125.14154 51 ft 143 kts 163°
2026-05-06 19:05 24.83030 125.14405 26 ft 117 kts 166°
2026-05-06 19:05 24.82461 125.14556 37 ft 53 kts 166°
2026-05-06 19:05 24.82249 125.14615 42 ft 25 kts 166°
2026-05-06 19:06 24.82093 125.14678 46 ft 23 kts 152°
2026-05-06 19:06 24.81974 125.14786 42 ft 19 kts 119°
2026-05-06 19:06 24.81994 125.14868 46 ft 9 kts 31°
2026-05-06 19:06 24.82056 125.14866 45 ft 10 kts 345°
2026-05-06 19:07 24.82142 125.14843 43 ft 16 kts 347°
2026-05-06 19:07 24.82226 125.14822 41 ft 21 kts 345°
2026-05-06 19:07 24.82453 125.14758 36 ft 28 kts 347°
2026-05-06 19:07 24.82588 125.14721 34 ft 19 kts 346°
2026-05-06 19:08 24.82729 125.14683 31 ft 24 kts 345°
2026-05-06 19:08 24.82846 125.14658 28 ft 9 kts 22°
2026-05-06 19:08 24.82873 125.14731 29 ft 12 kts 76°
2026-05-06 19:08 24.82886 125.14788 30 ft 0 kts 77°